カタログに戻る

OPS 4682 DEB

運用中PO
NORAD 59150·DEBRIS·🇺🇸 United States

打ち上げ Apr 3, 1965 から Vandenberg Space Force Base

Loading…

次のパス (今後24時間)

TLE

最新Source: Space-Track

元期: Sep 13, 2026, 17:46 UTC

1 59150U 65027HS  26256.74048232  .00000290  00000-0  95293-3 0  9993
2 59150  90.2529   6.2017 0029543 126.7265 233.6576 12.98920374515500

AllMySatでOPS 4682 DEBをリアルタイム追跡

Download on the App Store